sat.trackr.live / text

‹ back to catalog

STARLINK-5277

NORAD 55269 · 2023-010A

PAYLOAD ACTIVE UNKNOWN

§ Identity

Operator
Country
US
Launch date
2023-01-19
Launch site
AFWTR
Launch vehicle
Mass (kg)
RCS (m²)

Purposes: comms

External: N2YO · Heavens-Above · Gunter

§ Orbital elements

Epoch: 2026-09-20T22:00:03.000096Z

Period
95.58 min
Inclination
69.9990°
Eccentricity
0.0005424
Mean motion
15.06643691 rev/d
Perigee alt
542.7 km
Apogee alt
550.2 km
Semi-major
6,924.6 km
B*
7.3126e-3
RAAN
272.2040°
Arg perigee
246.5522°
Mean anomaly
325.8965°
Rev number
576

§ Raw data

STARLINK-52771 55269U 23010A   26263.91670139  .00110297  00000+0  73126-2 0  99982 55269  69.9990 272.2040 0005424 246.5522 325.8965 15.06643691  5766

JSON: /api/v1/satellites/55269 · /tle

For live sub-satellite position, see the globe view (requires WebGL).

§ Visibility from observer

Set your observer location to see the next 7 days of passes ≥ 10°. The values pass through the URL so the page stays shareable.

No JS? Fill the form by hand. The geolocation button needs JavaScript.